PBO Station Position Time Series. Reference Frame : NAM14
Format Version,1.1.0
4-character ID,MIL1
Station name,Milwaukee_1
Begin Date, 1996-01-11
End Date, 2006-11-14
Release Date, 2019-08-30
Reference position, 43.0025364168 North Latitude, -87.8884491899 East Longitude, 147.36630 meters elevation,
Date, North (mm), East (mm), Vertical (mm), North Std. Deviation (mm), East Std. Deviation (mm),              Vertical Std. Deviation (mm), Quality,
1996-01-11,0.00, 0.00, -10.07, 5.46, 4.48, 20.70, repro,
1996-01-12,1.67, 4.06, 0.00, 3.50, 2.87, 11.33, repro,
1996-01-13,0.07, 2.88, 0.69, 3.57, 3.01, 11.98, repro,
1996-01-14,0.65, 2.69, -5.52, 3.56, 2.99, 11.85, repro,
1996-01-15,-0.05, 5.69, -18.84, 3.55, 2.97, 11.86, repro,
1996-01-16,0.21, 7.89, -9.32, 3.75, 3.19, 12.88, repro,
1996-01-17,2.02, 6.72, 0.12, 3.61, 3.10, 12.40, repro,
1996-01-18,1.12, 1.48, -4.82, 3.45, 2.94, 11.96, repro,
1996-01-19,-1.23, 5.61, 1.67, 3.67, 3.19, 12.27, repro,
1996-01-20,1.68, 5.38, -13.26, 3.17, 2.58, 10.52, repro,
1996-01-21,2.35, 4.16, -9.30, 3.53, 2.97, 11.61, repro,
1996-01-22,-3.85, 4.85, 2.86, 3.12, 2.53, 10.18, repro,
1996-01-23,-2.21, 6.60, 8.77, 3.34, 2.95, 11.84, repro,
1996-01-24,-1.25, 6.01, 7.40, 3.29, 2.79, 11.50, repro,
1996-01-25,-2.28, 4.59, -1.75, 3.29, 2.89, 11.46, repro,
1996-01-26,-0.11, 5.92, -3.39, 3.57, 3.12, 12.02, repro,
1996-01-27,-3.70, 7.26, -0.20, 3.36, 2.90, 11.40, repro,
1996-01-28,-4.71, 7.55, -12.46, 3.49, 3.14, 12.19, repro,
1996-01-29,-1.47, 7.06, 0.55, 2.91, 2.26, 9.12, repro,
1996-01-30,-5.62, 7.42, 3.22, 3.24, 2.84, 11.73, repro,
1996-01-31,-4.10, 6.07, -2.94, 2.92, 2.26, 9.11, repro,
1996-02-01,-7.67, 6.57, 0.22, 2.81, 2.27, 9.02, repro,
1996-02-02,-5.41, 4.66, -4.88, 2.96, 2.39, 9.50, repro,
1996-02-03,-6.23, 4.76, -4.85, 3.09, 2.34, 9.78, repro,
1996-02-04,-7.43, 5.92, -7.99, 2.93, 2.28, 9.23, repro,
1996-02-05,-8.68, 1.98, -1.26, 2.96, 2.31, 9.12, repro,
1996-02-06,-7.44, 3.54, 6.54, 2.97, 2.33, 9.48, repro,
1996-02-07,-8.67, 1.79, 7.20, 2.82, 2.18, 8.80, repro,
1996-02-08,-4.55, 1.68, 15.53, 2.87, 2.18, 8.67, repro,
1996-02-09,-13.52, 5.64, 34.84, 3.28, 2.81, 11.27, repro,
1996-02-10,-6.27, 0.02, 6.01, 2.80, 2.15, 8.55, repro,
1996-02-11,-3.58, -2.42, 17.51, 3.97, 3.22, 14.32, repro,
1996-02-12,-2.39, -0.74, -14.85, 5.86, 5.32, 21.95, repro,
1996-02-13,-6.69, 1.38, 11.50, 3.79, 2.96, 11.76, repro,
1996-02-14,-6.69, 2.18, 17.33, 2.97, 2.34, 8.97, repro,
1996-02-15,-7.96, 0.95, 9.25, 2.78, 2.20, 8.41, repro,
1996-02-16,-4.26, 0.48, 3.74, 4.51, 4.17, 16.19, repro,
1996-02-17,-3.65, 0.77, -1.63, 2.96, 2.36, 9.35, repro,
1996-02-18,-3.71, -0.44, 0.63, 3.84, 2.94, 12.10, repro,
1996-02-19,-7.15, 2.43, 13.31, 2.96, 2.36, 9.30, repro,
1996-02-20,-2.07, 3.03, 18.79, 4.33, 3.53, 13.49, repro,
1996-02-21,-5.86, 3.79, -3.44, 3.18, 2.48, 9.53, repro,
1996-02-22,-1.79, 5.61, -2.71, 3.36, 2.64, 10.72, repro,
1996-02-23,-6.31, 0.97, 21.07, 3.13, 2.52, 9.63, repro,
1996-02-24,-7.12, -0.81, 14.07, 3.07, 2.45, 9.52, repro,
1996-02-25,-4.53, 2.89, 3.06, 3.33, 2.64, 10.63, repro,
1996-02-26,-3.59, 3.15, 0.06, 3.06, 2.45, 9.59, repro,
1996-02-27,-0.35, 4.42, -10.19, 3.25, 2.53, 10.02, repro,
1996-02-28,-0.74, 1.95, -3.96, 3.28, 2.56, 10.12, repro,
1996-02-29,-2.35, 3.19, -1.00, 3.11, 2.49, 9.59, repro,
1996-03-01,-2.59, 4.14, 6.77, 3.08, 2.45, 9.55, repro,
1996-03-02,-3.28, 3.75, 7.42, 2.95, 2.34, 9.02, repro,
1996-03-03,-2.17, 3.34, 3.19, 3.12, 2.52, 9.73, repro,
1996-03-04,-0.31, 5.72, -1.44, 3.78, 2.91, 11.52, repro,
1996-03-05,-2.63, 2.28, -6.60, 2.89, 2.21, 9.01, repro,
1996-03-06,-2.08, 2.46, -2.85, 2.81, 2.19, 8.76, repro,
1996-03-07,-3.58, 1.47, -10.92, 2.94, 2.22, 8.88, repro,
1996-03-08,-3.53, 1.86, -4.67, 2.86, 2.28, 8.88, repro,
1996-03-09,0.95, -1.25, -14.83, 5.21, 4.34, 18.20, repro,
1996-03-10,-4.92, 1.77, -16.61, 3.97, 3.29, 13.21, repro,
1996-03-11,-3.13, 2.56, -14.77, 2.89, 2.30, 8.99, repro,
1996-03-12,-6.09, -0.68, -4.28, 2.85, 2.26, 8.98, repro,
1996-03-13,-2.78, 0.70, -0.93, 2.71, 2.13, 8.76, repro,
1996-03-14,-3.85, 2.34, -0.41, 2.93, 2.30, 8.85, repro,
1996-03-15,1.87, 1.88, 6.08, 3.42, 2.69, 10.54, repro,
1996-03-16,3.11, 3.81, 8.01, 3.39, 2.68, 10.52, repro,
1996-03-17,1.43, 3.81, -3.99, 3.48, 2.82, 10.90, repro,
1996-03-18,0.97, 3.57, -4.78, 3.39, 2.70, 10.58, repro,
1996-03-19,-0.12, 1.74, -16.63, 3.40, 2.70, 10.88, repro,
1996-03-20,2.58, 3.46, -6.14, 3.31, 2.62, 10.96, repro,
1996-03-21,2.60, 0.89, -1.79, 3.61, 2.96, 12.13, repro,
1996-03-22,2.43, 6.28, -7.39, 3.73, 3.23, 12.33, repro,
1996-03-23,-2.07, 7.80, -2.60, 4.31, 3.59, 14.24, repro,
1996-03-24,0.58, 7.38, -7.17, 3.59, 2.72, 10.84, repro,
1996-03-25,-0.06, 3.79, -0.13, 3.40, 2.77, 11.30, repro,
1996-03-26,0.95, 4.86, -18.71, 3.42, 2.67, 11.26, repro,
1996-03-27,-0.50, 4.07, -18.17, 2.78, 2.19, 8.42, repro,
1996-03-28,-0.44, 5.63, -14.62, 2.79, 2.19, 8.63, repro,
1996-03-29,-0.56, 6.17, -9.42, 2.69, 2.09, 8.32, repro,
1996-03-30,-0.53, 5.90, -11.90, 2.74, 2.15, 8.33, repro,
1996-03-31,0.08, 4.13, -10.33, 2.76, 2.15, 8.37, repro,
1996-04-01,-0.35, 3.98, -11.12, 2.74, 2.13, 8.61, repro,
1996-04-02,-1.32, 4.82, -4.97, 3.04, 2.43, 8.96, repro,
1996-04-03,0.74, 5.69, 3.75, 2.74, 2.12, 8.41, repro,
1996-04-04,-0.22, 6.67, 2.60, 2.77, 2.17, 8.36, repro,
1996-04-05,-2.34, 5.83, -18.27, 2.88, 2.18, 8.92, repro,
1996-04-06,-1.35, 5.31, -8.75, 2.76, 2.16, 8.40, repro,
1996-04-07,0.11, 5.48, -0.93, 2.74, 2.16, 8.40, repro,
1996-04-08,-1.39, 7.46, 3.57, 3.63, 2.69, 11.20, repro,
1996-04-11,-1.03, 8.56, 24.29, 5.00, 4.06, 16.44, repro,
1996-04-12,0.05, 6.75, 5.17, 3.05, 2.31, 9.61, repro,
1996-04-13,-0.16, 6.17, 2.37, 2.79, 2.13, 8.38, repro,
1996-04-14,-1.17, 6.01, -4.52, 2.77, 2.11, 8.46, repro,
1996-04-15,2.97, 7.43, -14.63, 2.75, 2.12, 8.37, repro,
1996-04-16,-0.63, 4.33, -0.45, 2.67, 2.07, 8.18, repro,
1996-04-17,-1.03, 5.15, 0.98, 2.73, 2.15, 8.49, repro,
1996-04-18,-1.14, 5.18, 1.34, 2.82, 2.17, 8.69, repro,
1996-04-19,-0.47, 5.73, 3.16, 2.78, 2.19, 8.85, repro,
1996-04-20,-0.03, 4.15, 6.35, 2.91, 2.21, 8.79, repro,
1996-04-21,0.61, 4.39, 1.20, 2.96, 2.28, 8.96, repro,
1996-04-22,0.79, 5.75, 1.80, 2.85, 2.16, 8.61, repro,
1996-04-23,0.62, 5.21, -3.39, 2.66, 2.08, 8.39, repro,
1996-04-24,1.39, 4.98, -1.60, 2.73, 2.13, 8.31, repro,
1996-04-25,0.80, 5.72, 15.75, 2.78, 2.20, 8.66, repro,
1996-04-26,-0.86, 5.80, 11.93, 2.77, 2.13, 8.58, repro,
1996-04-28,2.12, 5.64, 3.40, 2.78, 2.20, 8.67, repro,
1996-04-29,4.12, 6.97, -0.23, 2.90, 2.40, 9.64, repro,
1996-04-30,-1.92, 5.90, 1.24, 2.71, 2.14, 8.55, repro,
1996-05-01,-0.17, 5.11, 6.90, 2.87, 2.21, 8.88, repro,
1996-05-02,1.88, 5.02, -0.16, 2.88, 2.23, 8.78, repro,
1996-05-03,-0.26, 6.82, 0.12, 2.79, 2.12, 8.35, repro,
1996-05-04,1.07, 6.16, -6.34, 2.76, 2.17, 8.67, repro,
1996-05-05,2.11, 4.69, -7.26, 2.74, 2.17, 8.46, repro,
1996-05-06,-0.01, 6.13, -4.60, 2.63, 2.07, 8.17, repro,
1996-05-07,-0.16, 5.77, -7.22, 2.81, 2.26, 8.68, repro,
1996-05-08,1.60, 6.27, -0.05, 2.85, 2.23, 8.63, repro,
1996-05-09,1.24, 6.23, -10.59, 2.85, 2.21, 8.72, repro,
1996-05-10,0.67, 6.63, 4.32, 2.93, 2.25, 9.03, repro,
1996-05-11,0.56, 7.83, -12.12, 2.87, 2.25, 9.62, repro,
1996-05-12,-0.34, 6.04, -4.65, 2.82, 2.21, 8.69, repro,
1996-05-13,0.25, 5.03, -5.89, 2.91, 2.29, 8.86, repro,
1996-05-14,-1.07, 4.51, -4.22, 3.14, 2.39, 9.40, repro,
1996-05-15,1.40, 8.37, 12.60, 3.80, 3.00, 12.27, repro,
1996-05-16,2.25, 7.82, 2.64, 3.97, 3.11, 13.95, repro,
1996-05-17,-2.97, 10.25, 11.55, 3.26, 2.50, 10.16, repro,
1996-05-18,4.64, 8.51, 32.75, 6.98, 5.12, 23.27, repro,
1996-05-20,0.51, 3.45, 3.63, 3.74, 2.95, 12.16, repro,
1996-05-21,1.91, 5.63, 6.96, 2.93, 2.29, 8.96, repro,
1996-05-22,0.74, 7.11, -2.62, 2.82, 2.25, 8.75, repro,
1996-05-23,-0.46, 5.23, -5.60, 2.77, 2.22, 8.70, repro,
1996-05-24,1.02, 5.73, -8.57, 2.81, 2.23, 8.85, repro,
1996-05-25,7.60, 8.02, 4.61, 8.78, 7.15, 35.61, repro,
1996-05-28,4.60, 5.25, 3.82, 3.66, 2.96, 12.26, repro,
1996-05-29,-1.26, 6.06, -3.81, 2.88, 2.26, 9.21, repro,
1996-05-30,-0.19, 5.69, -3.01, 2.75, 2.17, 8.56, repro,
1996-05-31,0.08, 6.35, -7.31, 2.84, 2.24, 9.00, repro,
1996-06-01,-0.50, 6.23, -0.73, 2.85, 2.26, 8.89, repro,
1996-06-02,-3.29, 7.50, 2.48, 2.75, 2.19, 8.70, repro,
1996-06-03,-0.60, 5.85, -1.66, 2.77, 2.22, 8.91, repro,
1996-06-04,-2.49, 6.77, 0.01, 2.80, 2.19, 8.83, repro,
1996-06-05,-0.13, 7.25, 1.21, 2.86, 2.24, 9.17, repro,
1996-06-06,-0.72, 5.65, 6.19, 2.73, 2.16, 8.59, repro,
1996-06-07,-0.62, 3.98, -3.02, 2.85, 2.29, 9.10, repro,
1996-06-08,-2.16, 6.78, -12.38, 2.67, 2.11, 8.81, repro,
1996-06-09,-2.14, 5.77, -3.79, 2.74, 2.17, 8.77, repro,
1996-06-10,-0.38, 8.09, 1.88, 2.87, 2.28, 8.94, repro,
1996-06-11,0.50, 6.30, 3.54, 2.85, 2.26, 8.83, repro,
1996-06-12,-1.66, 5.89, 7.21, 2.85, 2.23, 8.78, repro,
1996-06-13,-2.08, 4.82, 2.74, 2.81, 2.20, 8.79, repro,
1996-06-14,-3.10, 7.15, -8.29, 2.80, 2.18, 8.80, repro,
1996-06-15,-1.41, 6.77, -9.49, 2.72, 2.12, 8.62, repro,
1996-06-16,-1.24, 6.31, -1.48, 2.75, 2.16, 8.81, repro,
1996-06-17,1.20, 5.72, 3.65, 2.85, 2.25, 9.20, repro,
1996-06-18,0.81, 8.52, -8.99, 3.83, 2.89, 12.34, repro,
1996-06-19,-1.78, 7.80, -1.40, 3.01, 2.33, 9.54, repro,
1996-06-20,-1.60, 6.23, -4.98, 2.82, 2.17, 8.90, repro,
1996-06-21,0.53, 5.93, 1.86, 2.81, 2.19, 8.93, repro,
1996-06-22,-3.56, 4.94, -4.63, 2.66, 2.02, 8.68, repro,
1996-06-23,-0.43, 5.03, -6.58, 2.78, 2.14, 8.84, repro,
1996-06-24,-4.09, 4.38, -5.68, 2.84, 2.19, 9.02, repro,
1996-06-25,0.25, 6.18, -5.58, 2.85, 2.22, 8.89, repro,
1996-06-26,-0.38, 6.51, -1.45, 2.84, 2.19, 8.87, repro,
1996-06-27,0.06, 7.10, 4.48, 2.82, 2.21, 8.86, repro,
1996-06-28,-1.29, 7.54, -2.81, 3.02, 2.32, 9.51, repro,
1996-07-01,4.20, 4.72, -14.28, 3.96, 3.16, 13.31, repro,
1996-07-02,-1.01, 6.51, 8.89, 2.92, 2.22, 9.36, repro,
1996-07-03,-0.93, 4.56, -2.80, 2.94, 2.30, 9.16, repro,
1996-07-04,1.05, 7.21, -2.27, 2.81, 2.18, 8.87, repro,
1996-07-05,-1.13, 7.34, 4.10, 2.81, 2.18, 8.92, repro,
1996-07-06,1.17, 6.98, -10.43, 2.81, 2.18, 8.85, repro,
1996-07-07,1.59, 4.49, 4.62, 2.79, 2.22, 9.07, repro,
1996-07-08,1.78, 5.40, -1.30, 2.81, 2.25, 9.04, repro,
1996-07-09,0.58, 7.28, -5.10, 2.78, 2.19, 8.85, repro,
1996-07-10,0.12, 6.57, -3.22, 2.86, 2.21, 9.26, repro,
1996-07-11,-0.88, 6.94, -8.50, 2.80, 2.25, 9.14, repro,
1996-07-12,-0.08, 7.08, 6.56, 2.84, 2.30, 9.40, repro,
1996-07-13,4.29, 6.33, -4.84, 2.72, 2.18, 8.72, repro,
1996-07-14,1.81, 5.23, -7.66, 2.76, 2.22, 8.80, repro,
1996-07-15,-2.02, 5.13, -10.63, 2.74, 2.22, 8.98, repro,
1996-07-16,0.06, 7.78, -2.87, 2.82, 2.27, 9.18, repro,
1996-07-17,2.00, 8.17, -13.89, 2.84, 2.26, 9.33, repro,
1996-07-18,-0.19, 7.05, -8.18, 2.74, 2.21, 9.20, repro,
1996-07-19,0.41, 6.46, 7.48, 2.89, 2.42, 10.10, repro,
1996-07-20,-0.36, 6.92, -3.36, 2.69, 2.13, 8.80, repro,
1996-07-21,-1.68, 5.43, -8.84, 2.71, 2.15, 8.82, repro,
1996-07-22,-3.20, 6.96, -7.46, 2.70, 2.15, 8.84, repro,
1996-07-23,-2.13, 6.45, -7.58, 2.46, 1.95, 8.46, repro,
1996-07-24,-1.89, 6.66, -10.40, 2.60, 2.07, 8.77, repro,
1996-07-25,-1.28, 5.86, -8.39, 2.51, 1.97, 8.41, repro,
1996-07-26,-2.67, 5.84, -17.71, 2.61, 2.00, 8.65, repro,
1996-07-27,-0.44, 6.09, -13.00, 2.59, 2.07, 8.83, repro,
1996-07-28,-3.19, 7.58, -13.54, 2.51, 2.00, 8.56, repro,
1996-07-29,-3.48, 8.88, -4.16, 2.56, 2.03, 8.73, repro,
1996-07-30,-1.16, 6.45, -9.37, 2.53, 1.97, 8.51, repro,
1996-07-31,-1.07, 4.39, -8.73, 2.56, 2.00, 8.46, repro,
1996-08-01,-0.48, 5.65, -16.73, 2.58, 2.06, 8.69, repro,
1996-08-02,-2.84, 5.85, -13.82, 2.58, 2.04, 8.68, repro,
1996-08-03,-1.85, 6.36, -14.04, 2.50, 1.95, 8.40, repro,
1996-08-04,0.41, 5.54, -12.94, 2.59, 2.00, 8.63, repro,
1996-08-05,-3.03, 8.02, -16.14, 2.56, 2.01, 8.62, repro,
1996-08-06,-1.11, 6.10, 2.63, 2.83, 2.26, 9.67, repro,
1996-08-07,-2.51, 5.86, -2.93, 2.62, 2.02, 8.83, repro,
1996-08-08,-2.32, 5.45, -14.81, 2.62, 2.02, 8.88, repro,
1996-08-09,-0.81, 4.89, -8.55, 2.61, 2.10, 8.53, repro,
1996-08-10,0.70, 7.25, -5.15, 2.62, 2.11, 8.48, repro,
1996-08-11,1.75, 6.62, -6.59, 2.73, 2.17, 8.65, repro,
1996-08-12,-0.56, 6.53, -1.81, 2.60, 2.08, 8.51, repro,
1996-08-13,-0.98, 5.31, -3.45, 2.59, 2.09, 8.55, repro,
1996-08-14,-2.68, 7.50, -15.37, 2.69, 2.19, 8.85, repro,
1996-08-15,1.82, 6.12, -10.00, 2.85, 2.36, 9.64, repro,
1996-08-16,0.60, 7.02, -8.63, 2.65, 2.15, 8.73, repro,
1996-08-17,-0.41, 7.12, -11.42, 2.71, 2.17, 8.80, repro,
1996-08-18,1.29, 6.15, -10.18, 2.83, 2.31, 9.14, repro,
1996-08-19,-1.68, 7.00, -1.34, 2.87, 2.34, 9.56, repro,
1996-08-20,0.25, 2.54, 1.22, 2.81, 2.26, 9.17, repro,
1996-08-21,0.98, 4.07, -15.62, 2.90, 2.30, 9.34, repro,
1996-08-22,2.84, 5.01, -9.68, 2.75, 2.21, 8.99, repro,
1996-08-23,0.76, 5.26, -7.36, 2.77, 2.18, 8.92, repro,
1996-08-24,-2.60, 7.30, -5.34, 2.89, 2.31, 9.57, repro,
1996-08-25,0.05, 6.38, -4.21, 2.84, 2.27, 9.20, repro,
1996-08-26,-0.70, 7.92, 9.05, 2.88, 2.27, 9.19, repro,
1996-08-27,-0.40, 5.34, -12.26, 2.87, 2.26, 8.91, repro,
1996-08-28,0.22, 5.39, -6.84, 2.87, 2.27, 9.28, repro,
1996-08-29,-0.39, 6.68, -12.70, 2.80, 2.26, 8.78, repro,
1996-08-30,2.40, 6.85, 6.33, 3.03, 2.32, 9.32, repro,
1996-08-31,0.41, 5.02, -4.37, 2.71, 2.17, 8.62, repro,
1996-09-01,-0.10, 7.90, -8.15, 2.87, 2.25, 9.02, repro,
1996-09-02,0.28, 12.12, -2.69, 3.13, 2.50, 9.97, repro,
1996-09-03,0.32, 6.41, -10.72, 2.67, 2.10, 8.76, repro,
1996-09-04,-1.37, 7.85, 0.15, 2.94, 2.37, 9.51, repro,
1996-09-05,1.33, 7.38, -1.71, 2.81, 2.17, 8.78, repro,
1996-09-06,2.25, 7.29, 1.66, 2.93, 2.25, 9.48, repro,
1996-09-07,2.42, 8.50, -0.50, 2.87, 2.24, 9.06, repro,
1996-09-08,2.28, 6.97, 9.46, 2.89, 2.38, 9.57, repro,
1996-09-09,-1.36, 6.52, 5.86, 2.98, 2.40, 9.68, repro,
1996-09-10,2.69, 5.53, -8.00, 2.89, 2.33, 9.56, repro,
1996-09-11,2.39, 5.77, -5.32, 3.06, 2.41, 9.64, repro,
1996-09-12,1.31, 7.29, -11.66, 3.05, 2.47, 10.19, repro,
1996-09-13,2.13, 7.29, -5.15, 2.73, 2.18, 8.83, repro,
1996-09-14,0.40, 5.78, -6.57, 2.68, 2.21, 9.17, repro,
1996-09-15,0.28, 7.88, -1.34, 2.97, 2.44, 10.02, repro,
1996-09-16,-0.78, 10.17, -0.99, 2.96, 2.39, 9.57, repro,
1996-09-17,2.88, 6.52, -0.21, 2.83, 2.34, 9.39, repro,
1996-09-18,2.17, 6.68, -11.61, 2.80, 2.27, 9.08, repro,
1996-09-19,-0.25, 8.15, -11.65, 2.77, 2.26, 9.17, repro,
1996-09-20,2.10, 8.02, -4.31, 2.80, 2.31, 9.13, repro,
1996-09-21,2.01, 7.25, -2.61, 2.76, 2.21, 9.15, repro,
1996-09-22,0.40, 7.48, 11.71, 3.23, 2.62, 10.51, repro,
1996-09-23,-2.76, 7.61, 1.03, 2.87, 2.31, 9.33, repro,
1996-09-24,-1.90, 4.99, -9.49, 2.70, 2.19, 8.86, repro,
1996-09-25,-1.92, 7.22, -15.73, 2.51, 1.98, 8.35, repro,
1996-09-26,-3.83, 7.66, -2.35, 2.51, 1.98, 8.41, repro,
1996-09-27,-4.53, 6.29, 2.14, 2.62, 2.02, 8.66, repro,
1996-09-28,-3.09, 6.92, 1.10, 2.48, 1.99, 8.29, repro,
1996-09-29,-2.20, 8.41, -2.10, 2.67, 2.15, 8.45, repro,
1996-09-30,-2.97, 8.71, -6.82, 2.68, 2.11, 8.50, repro,
1996-10-01,-2.09, 8.17, -2.96, 2.69, 2.14, 8.49, repro,
1996-10-02,-0.03, 5.33, -15.11, 2.74, 2.23, 9.20, repro,
1996-10-03,-1.47, 6.17, -8.68, 2.72, 2.12, 8.39, repro,
1996-10-04,-1.70, 8.24, -17.23, 2.76, 2.13, 8.56, repro,
1996-10-05,-3.14, 8.91, -12.29, 2.68, 2.12, 8.47, repro,
1996-10-07,-2.74, 7.51, -5.06, 3.67, 2.78, 11.75, repro,
1996-10-08,-0.53, 7.34, -7.80, 2.85, 2.24, 9.11, repro,
1996-10-09,-0.01, 6.59, -6.32, 2.72, 2.17, 8.55, repro,
1996-10-10,-1.27, 7.21, -5.78, 2.63, 2.08, 8.26, repro,
1996-10-11,0.44, 6.31, -6.97, 2.63, 2.17, 8.56, repro,
1996-10-12,-3.03, 5.82, -9.81, 2.55, 2.04, 8.10, repro,
1996-10-13,0.41, -0.72, -24.24, 5.67, 5.04, 20.47, repro,
1996-10-15,-0.27, 9.10, -7.06, 3.34, 2.54, 10.75, repro,
1996-10-16,0.49, 7.28, -3.12, 2.70, 2.08, 8.46, repro,
1996-10-17,-3.75, 6.86, -6.43, 2.62, 2.06, 8.38, repro,
1996-10-18,-4.29, 6.08, -7.93, 2.45, 1.88, 8.15, repro,
1996-10-19,-2.30, 7.42, -8.02, 2.50, 1.92, 8.15, repro,
1996-10-20,-2.26, 6.37, -13.63, 3.12, 2.43, 10.65, repro,
1996-10-21,-1.02, 4.97, -8.01, 3.35, 2.45, 10.63, repro,
1996-10-22,-0.45, 7.61, -8.48, 2.56, 2.00, 8.16, repro,
1996-10-23,-2.30, 8.37, -0.26, 2.61, 2.03, 8.42, repro,
1996-10-24,-4.61, 5.59, -0.41, 2.42, 1.86, 8.07, repro,
1996-10-25,-0.83, 8.02, 1.92, 2.53, 1.97, 8.13, repro,
1996-10-26,-2.06, 6.28, -14.14, 2.53, 1.98, 8.28, repro,
1996-10-27,-34.03, -47.93, -152.90, 66.27, 379.90, 600.41, repro,
1996-10-28,-1.52, 6.53, -14.38, 2.58, 2.00, 8.42, repro,
1996-10-29,-4.69, 7.76, -6.53, 2.46, 1.89, 8.28, repro,
1996-10-30,-2.74, 5.72, 2.42, 2.51, 1.96, 8.36, repro,
1996-10-31,-1.60, 6.37, -2.64, 2.54, 2.02, 8.30, repro,
1996-11-01,-0.46, 6.53, -11.44, 2.57, 1.97, 8.34, repro,
1996-11-02,-2.19, 7.47, -7.23, 2.61, 2.03, 8.65, repro,
1996-11-03,-2.68, 7.70, -8.46, 2.56, 2.01, 8.30, repro,
1996-11-04,-2.38, 7.77, -3.94, 2.68, 2.08, 9.10, repro,
1996-11-05,-0.07, 6.92, -7.95, 2.85, 2.17, 8.88, repro,
1996-11-06,-1.34, 7.39, 0.17, 2.77, 2.12, 9.14, repro,
1996-11-07,-0.31, 7.96, 7.08, 2.95, 2.34, 9.54, repro,
1996-11-08,-4.24, 6.42, -8.38, 2.58, 1.96, 8.44, repro,
1996-11-09,-0.24, 5.59, -3.88, 2.84, 2.19, 8.92, repro,
1996-11-10,0.34, 4.40, 1.05, 2.74, 2.13, 8.78, repro,
1996-11-11,-0.51, 5.44, -9.57, 2.79, 2.19, 9.69, repro,
1996-11-12,-2.12, 6.47, -20.62, 2.73, 2.18, 8.87, repro,
1996-11-13,-2.81, 6.11, -14.15, 2.80, 2.21, 9.31, repro,
1996-11-14,-0.22, 8.70, -15.83, 2.81, 2.25, 9.42, repro,
1996-11-15,-2.48, 6.90, -12.53, 2.65, 2.02, 8.47, repro,
1996-11-16,0.18, 4.78, -14.14, 2.84, 2.20, 9.62, repro,
1996-11-17,0.10, 3.95, -15.31, 2.89, 2.40, 9.75, repro,
1996-11-18,-2.48, 5.52, -6.72, 2.93, 2.41, 9.98, repro,
1996-11-19,-0.56, 6.97, -9.34, 2.92, 2.32, 9.74, repro,
1996-11-20,-0.98, 6.06, -11.25, 2.58, 2.04, 8.34, repro,
1996-11-21,-1.21, 7.60, -4.60, 2.74, 2.21, 9.20, repro,
1996-11-23,-0.35, 6.18, -11.65, 2.65, 2.08, 8.79, repro,
1996-11-24,0.39, 7.21, -4.37, 2.66, 2.14, 8.64, repro,
1996-11-25,-0.45, 5.56, -13.12, 2.66, 2.10, 8.72, repro,
1996-11-26,-2.19, 5.13, -15.82, 2.66, 2.10, 8.77, repro,
1996-11-27,-1.17, 6.25, -16.71, 2.73, 2.19, 8.95, repro,
1996-11-28,-4.07, 5.93, -9.78, 2.87, 2.12, 9.23, repro,
1996-11-29,-4.09, 7.41, -4.11, 2.90, 2.23, 9.43, repro,
1996-11-30,-3.03, 4.26, 6.47, 2.75, 2.20, 9.42, repro,
1996-12-01,-3.70, 6.19, -5.17, 2.78, 2.13, 9.08, repro,
1996-12-02,-1.83, 7.31, 3.66, 2.83, 2.26, 9.99, repro,
1996-12-03,3.18, 8.90, 1.93, 2.73, 2.20, 9.02, repro,
1996-12-04,1.34, 7.07, 6.58, 2.76, 2.15, 9.07, repro,
1996-12-05,-4.98, 8.30, 13.52, 2.87, 2.26, 10.00, repro,
1996-12-06,-3.10, 9.18, 20.63, 3.05, 2.47, 10.37, repro,
1996-12-07,-0.00, 5.36, 3.02, 2.78, 2.17, 9.11, repro,
1996-12-08,-2.15, 3.40, 0.40, 2.88, 2.20, 9.33, repro,
1996-12-09,-7.39, 2.24, 18.51, 4.10, 3.13, 14.16, repro,
1996-12-10,-0.43, 7.60, -5.05, 2.82, 2.20, 9.12, repro,
1996-12-11,-1.40, 7.46, -0.88, 2.70, 2.11, 8.69, repro,
1996-12-12,0.69, 8.12, -12.97, 2.71, 2.11, 8.70, repro,
1996-12-13,-2.70, 7.31, -9.76, 2.70, 2.10, 8.66, repro,
1996-12-14,0.24, 8.12, -11.98, 2.67, 2.07, 8.62, repro,
1996-12-15,-1.41, 7.38, -17.05, 2.83, 2.14, 9.02, repro,
1996-12-16,0.69, 6.36, -16.55, 2.59, 2.00, 8.27, repro,
1996-12-17,-0.45, 5.52, -14.72, 2.76, 2.21, 9.04, repro,
1996-12-18,-0.53, 7.59, -13.87, 2.60, 2.01, 8.20, repro,
1996-12-19,-0.12, 7.45, -10.97, 2.74, 2.13, 8.86, repro,
1996-12-20,0.54, 7.66, -10.33, 2.74, 2.15, 8.88, repro,
1996-12-21,0.32, 8.88, -16.67, 2.73, 2.09, 8.53, repro,
1996-12-22,2.91, 9.19, -12.63, 2.69, 2.07, 8.25, repro,
1996-12-23,-0.04, 8.03, -18.85, 2.66, 2.07, 8.39, repro,
1996-12-24,-1.14, 6.27, -20.72, 2.65, 2.07, 8.37, repro,
1996-12-25,-1.53, 7.97, -21.13, 2.72, 2.07, 8.77, repro,
1996-12-26,0.60, 8.42, -17.24, 2.66, 2.04, 8.27, repro,
1996-12-27,-0.78, 8.60, -12.88, 2.69, 2.09, 8.37, repro,
1996-12-28,-1.54, 7.64, -12.47, 2.72, 2.12, 8.56, repro,
1996-12-29,-1.92, 8.32, -13.69, 2.61, 2.02, 8.29, repro,
1996-12-30,-1.30, 9.28, -9.37, 2.85, 2.19, 9.05, repro,
1996-12-31,-0.83, 7.36, -18.93, 2.76, 2.11, 8.73, repro,
1997-01-01,-0.94, 8.04, -15.01, 2.70, 2.02, 8.45, repro,
1997-01-02,-1.41, 7.18, -4.99, 2.74, 2.09, 8.86, repro,
1997-01-03,-2.28, 6.19, -7.15, 2.78, 2.19, 9.26, repro,
1997-01-04,-1.94, 8.48, -10.96, 2.77, 2.16, 8.87, repro,
1997-01-05,-1.61, 6.57, -6.87, 2.77, 2.10, 8.90, repro,
1997-01-06,-2.22, 5.93, -16.36, 2.91, 2.31, 9.64, repro,
1997-01-07,-3.86, 6.20, -26.75, 2.72, 2.11, 9.04, repro,
1997-01-08,-1.33, 6.96, -23.31, 2.56, 1.94, 8.28, repro,
1997-01-09,-1.18, 6.91, -19.14, 2.70, 2.07, 8.77, repro,
1997-01-10,-2.02, 6.40, -14.85, 2.45, 1.90, 8.14, repro,
1997-01-11,-1.89, 6.38, -20.61, 2.60, 2.01, 8.67, repro,
1997-01-12,-4.09, 7.11, -29.42, 2.69, 2.12, 9.00, repro,
1997-01-13,-0.91, 8.08, -27.26, 2.57, 1.96, 8.37, repro,
1997-01-14,-3.83, 6.46, -26.57, 2.66, 2.02, 8.79, repro,
1997-01-15,-3.63, 7.44, -23.11, 2.85, 2.29, 9.65, repro,
1997-01-16,-4.79, 7.30, -12.81, 3.37, 2.81, 11.74, repro,
1997-01-17,-2.87, 7.18, -28.13, 3.01, 2.28, 10.08, repro,
1997-01-18,-1.75, 7.51, -30.33, 2.81, 2.18, 9.25, repro,
1997-01-19,0.65, 8.11, -14.90, 2.63, 2.09, 8.70, repro,
1997-01-20,-5.00, 7.85, -18.73, 2.48, 1.94, 8.25, repro,
1997-01-21,-10.42, 5.08, -1.94, 4.32, 3.51, 16.80, repro,
1997-01-22,-7.07, 7.11, -15.16, 2.91, 2.21, 9.18, repro,
1997-01-23,-7.18, 8.70, -21.64, 2.61, 2.00, 8.54, repro,
1997-01-24,-3.19, 8.02, -22.89, 2.79, 2.16, 9.03, repro,
1997-01-25,-5.25, 5.43, -27.07, 2.87, 2.13, 9.52, repro,
1997-01-26,-5.69, 7.50, -25.98, 2.71, 2.11, 9.01, repro,
1997-01-27,-4.85, 6.87, -14.76, 3.03, 2.32, 9.54, repro,
1997-01-28,-4.57, 8.24, -22.21, 2.51, 1.93, 8.13, repro,
1997-01-29,-3.55, 9.12, -28.41, 2.52, 1.96, 8.31, repro,
1997-01-30,-4.04, 8.41, -15.94, 2.56, 1.96, 8.08, repro,
1997-01-31,-4.44, 8.30, -8.32, 2.53, 1.95, 7.98, repro,
1997-02-01,-4.54, 6.20, -6.60, 2.47, 1.90, 7.97, repro,
1997-02-02,-1.32, 7.42, -26.71, 3.05, 2.45, 10.07, repro,
1997-02-03,-3.92, 7.59, -32.31, 3.06, 2.44, 10.09, repro,
1997-02-04,1.10, 8.70, -38.26, 3.08, 2.51, 10.63, repro,
1997-02-05,-1.64, 8.70, -30.40, 3.01, 2.41, 10.17, repro,
1997-02-06,-3.88, 6.81, -22.20, 3.03, 2.38, 9.94, repro,
1997-02-07,-2.37, 6.22, -29.49, 2.94, 2.33, 9.67, repro,
1997-02-08,-0.68, 5.31, -36.80, 2.91, 2.29, 9.60, repro,
1997-02-09,-3.44, 6.55, -34.76, 2.96, 2.34, 9.80, repro,
1997-02-10,-5.20, 8.99, -35.73, 3.23, 2.65, 11.06, repro,
1997-02-11,-4.04, 8.24, -36.82, 3.04, 2.38, 9.95, repro,
1997-02-12,-2.63, 7.35, -31.11, 2.96, 2.32, 9.68, repro,
1997-02-13,-1.56, 7.89, -42.28, 2.95, 2.31, 9.64, repro,
1997-02-14,-2.12, 8.97, -32.17, 3.17, 2.57, 11.18, repro,
1997-02-15,-7.56, 6.23, -23.72, 3.24, 2.59, 11.13, repro,
1997-02-16,-4.51, 10.41, -36.67, 2.97, 2.41, 10.31, repro,
1997-02-17,-5.15, 10.38, -33.24, 3.13, 2.54, 10.79, repro,
1997-02-18,-4.81, 7.33, -24.66, 3.17, 2.62, 10.99, repro,
1997-02-19,-2.57, 4.56, -19.19, 3.09, 2.50, 10.61, repro,
1997-02-20,-2.47, 6.24, -15.54, 3.03, 2.45, 10.45, repro,
1997-02-21,-1.02, 7.34, -23.70, 3.06, 2.44, 10.44, repro,
1997-02-22,2.23, 10.26, -16.85, 3.01, 2.41, 10.40, repro,
1997-02-23,3.65, 8.91, -27.39, 3.12, 2.57, 10.55, repro,
1997-02-24,6.24, 8.61, -35.08, 2.71, 2.07, 8.56, repro,
1997-02-25,3.35, 8.58, -26.49, 2.50, 1.90, 8.17, repro,
1997-02-26,-1.06, 6.13, -16.55, 2.52, 1.92, 8.34, repro,
1997-02-27,7.51, 8.04, 0.15, 2.80, 2.14, 8.89, repro,
1997-02-28,2.69, 5.47, -31.74, 2.57, 1.99, 8.52, repro,
1997-03-01,-3.21, 5.01, -18.53, 2.76, 2.18, 8.94, repro,
1997-03-02,-7.57, 4.41, -17.94, 2.59, 1.98, 8.60, repro,
1997-03-03,-3.43, 4.85, -20.37, 2.48, 1.91, 8.30, repro,
1997-03-04,-4.85, 4.56, -22.74, 2.64, 2.04, 8.79, repro,
1997-03-05,-4.04, 3.36, -19.71, 2.53, 1.95, 8.25, repro,
1997-03-06,-3.01, 5.10, -24.76, 2.53, 1.94, 8.46, repro,
1997-03-07,-3.35, 6.87, -26.17, 2.55, 1.92, 8.48, repro,
1997-03-08,-1.59, 3.75, -28.82, 2.75, 2.09, 9.03, repro,
1997-03-09,-4.80, 5.65, -19.24, 2.70, 2.05, 8.71, repro,
1997-03-10,-4.23, 4.39, -14.10, 2.63, 2.06, 8.70, repro,
1997-03-11,-4.42, 3.63, -24.32, 2.55, 2.00, 8.62, repro,
1997-03-12,-2.23, 6.86, -33.15, 2.48, 1.92, 8.33, repro,
1997-03-13,-2.68, 5.84, -31.12, 2.64, 2.03, 8.68, repro,
1997-03-15,-3.61, 1.67, -34.88, 2.58, 1.97, 8.56, repro,
1997-03-16,-3.64, 4.83, -34.01, 2.54, 1.95, 8.34, repro,